Regional Weather Roundup
Issued by NWS Huntsville, AL

Home | Current Version | Previous Version | Text Only | Print | Product List | Glossary On
Versions: 1 2 3 4 5 6 7 8 9 10 11 12 13 14 15 16 17 18 19 20 21 22 23 24 25 26 27 28 29 30 31 32 33 34 35 36 37 38 39 40 41 42 43 44 45 46 47 48 49 50
000
ASUS44 KHUN 250310
RWRHUN

WEATHER ROUNDUP FOR THE TENNESSEE VALLEY
NATIONAL WEATHER SERVICE HUNTSVILLE AL
1000 PM CDT TUE APR 24 2018

ALZ001>004-250400-
NORTHWEST ALABAMA

CITY           SKY/WX    TMP DP  RH WIND       PRES   REMARKS
SHOALS AIRPORT CLOUDY    61  55  81 NW9       30.00R
$$

ALZ005>007-016-250400-
NORTH CENTRAL ALABAMA

CITY           SKY/WX    TMP DP  RH WIND       PRES   REMARKS
DECATUR AP     CLOUDY    61  56  83 W9        29.97R
HUNTSVILLE AP  CLOUDY    61  58  90 NW8       29.96R
MERIDIANVILLE  CLOUDY    59  57  92 NW3       29.96R
VINEMONT AP    FAIR      58  52  80 NW5       30.00R
$$

ALZ008>010-250400-
NORTHEAST ALABAMA

CITY           SKY/WX    TMP DP  RH WIND       PRES   REMARKS
ALBERTVILLE    MOCLDY    59  59 100 NW5       29.95S
FORT PAYNE     MOCLDY    59  54  82 CALM      29.94R
SCOTTSBORO AP  DRIZZLE   59  59 100 CALM      29.95R
$$

TNZ076-096-097-250400-
SOUTHEASTERN MIDDLE TENNESSEE

CITY           SKY/WX    TMP DP  RH WIND       PRES   REMARKS
TULLAHOMA      MOCLDY    57  54  88 NW10      29.95S
WINCHESTER     CLOUDY    57  55  94 CALM      29.95S
$$

...SURROUNDING SITES...

CITY           SKY/WX    TMP DP  RH WIND       PRES   REMARKS
ATLANTA        FAIR      60  55  83 W8        29.91R
ANNISTON       CLOUDY    59  56  89 SW6       29.96R
BIRMINGHAM     CLOUDY    62  54  74 W8        30.00R
CHATTANOOGA    LGT RAIN  60  54  80 W3        29.92R
CORINTH        FAIR      57  55  94 NW5       30.01S
DALTON         CLOUDY    59  54  82 NW3       29.93R
GADSDEN        FAIR      60  55  83 W5        29.96R
GOLDEN TRNGL   CLOUDY    63  57  81 NW5       30.02R
HALEYVILLE     MOCLDY    57  56  96 NW7       30.02R
JACKSON TN     FAIR      56  55  97 W5        30.02R
MEMPHIS        FAIR      60  55  83 N3        30.03R
NASHVILLE      CLOUDY    57  53  86 NW8       29.97S
OXFORD MS      CLOUDY    57  55  94 CALM      30.04S
ROME           MOCLDY    61  55  81 CALM      29.91R
SAVANNAH       MOCLDY    59  55  88 NW6       30.00S
SELMER         MOCLDY    57  54  88 VRB5      30.01R
TUPELO         FAIR      60  53  77 CALM      30.01R
TUSCALOOSA     FAIR      61  58  90 NW3       30.00R
$$

...GULF COAST WEATHER...

CITY           SKY/WX    TMP DP  RH WIND       PRES   REMARKS
GULFPORT       FAIR      65  56  72 N3        30.01R
PASCAGOULA     FAIR      57  54  89 CALM      30.01R
MOBILE         FAIR      58  55  90 CALM      30.02R
GULF SHORES    FAIR      62  54  74 NW6       30.00R
PENSACOLA      FAIR      63  51  65 N5        29.99R
DESTIN         FAIR      68  53  58 N13       29.98R
APPALACHICOLA  FAIR      65  61  87 W5        29.96R
$$




USA.gov is the U.S. government's official web portal to all federal, state and local government web resources and services.